Regional Weather Roundup
Issued by NWS Goodland, KS

Home | Current Version | Previous Version | Graphics & Text | Print | Product List | Glossary On
Versions: 1 2 3 4 5 6 7 8 9 10 11 12 13 14 15 16 17 18 19 20 21 22 23 24 25 26 27 28 29 30 31 32 33 34 35 36 37 38 39 40 41 42 43 44 45 46 47 48 49 50
000
ASUS43 KGLD 051108
RWRGLD

GOODLAND FORECAST AREA HOURLY WEATHER ROUNDUP
NATIONAL WEATHER SERVICE GOODLAND KS
400 AM MST THU MAR 05 2015

...OFFICIAL OBSERVATIONS...

CITY           SKY/WX    TMP DP  RH WIND       PRES   REMARKS
GOODLAND KS    CLEAR     14   9  80 W10       30.27S WCI   1
HILL CITY KS   FAIR       8   1  73 CALM      30.38R
IMPERIAL NEB     N/A      7   2  80 CALM      30.26F
MCCOOK NEB     CLEAR     10   1  67 E5        30.34S
AKRON CO       CLEAR     10   5  80 SW12      30.19F WCI  -5
BURLINGTON CO  CLEAR     13   6  74 SW12      30.25F WCI  -1
LIMON CO       PTCLDY    -7 -11  83 N8        30.20F
$$

...UNOFFICIAL OBSERVATIONS...

CITY           SKY/WX    TMP DP  RH WIND       PRES   REMARKS
COLBY KS       CLEAR     10   9  92 W6        30.31S
GOVE KS          N/A     11  32 100 MISG        N/A
NORTON KS      CLEAR      9   0  66 CALM      30.36R
SHARON SPRINGS   N/A     17  12  82 CALM        N/A
KIT CARSON CO    N/A     11   6  81 MISG        N/A
YUMA CO          N/A      9   3  76 CALM        N/A
$$



USA.gov is the U.S. government's official web portal to all federal, state and local government web resources and services.